When you browse on this site, cookies collect data to enhance your experience and personalize the content and advertising you see.
Visit our Privacy Policy to learn more. By continuing to use the site, you agree to this use of cookies and data.
  • In Czech Republic
  • List of Countries
  • For 7 days
  • Water Temperature
  • Weather Map
  • Weather Widgets
  • user-avatar
    Login

    Hourly Weather Djelfa

    Today, 8 April, Wednesday

    Time Temperature Precipitation Wind Pressure Humidity
    00:00 +13°C° 0 mm 1 mps 668 mmHg 65%
    01:00 +13°C° 0 mm 2 mps 668 mmHg 65%
    02:00 +13°C° 0 mm 2 mps 667 mmHg 65%
    03:00 +11°C° 0 mm 3 mps 667 mmHg 64%
    04:00 +12°C° 0 mm 2 mps 667 mmHg 64%
    05:00 +12°C° 0 mm 2 mps 667 mmHg 64%
    06:00 +10°C° 0 mm 2 mps 667 mmHg 64%
    07:00 +13°C° 0 mm 2 mps 667 mmHg 58%
    08:00 +15°C° 0 mm 2 mps 668 mmHg 52%
    09:00 +17°C° 0 mm 2 mps 669 mmHg 45%
    10:00 +18°C° 0 mm 2 mps 668 mmHg 43%
    11:00 +19°C° 0 mm 2 mps 668 mmHg 40%
    12:00 +20°C° 0 mm 3 mps 668 mmHg 38%
    13:00 +20°C° 0 mm 3 mps 668 mmHg 37%
    14:00 +20°C° 0 mm 3 mps 667 mmHg 36%
    15:00 +20°C° 0 mm 2 mps 667 mmHg 35%
    16:00 +20°C° 0 mm 2 mps 667 mmHg 36%
    17:00 +20°C° 0 mm 2 mps 667 mmHg 38%
    18:00 +19°C° 0 mm 2 mps 667 mmHg 39%
    19:00 +18°C° 0 mm 2 mps 667 mmHg 43%
    20:00 +17°C° 0 mm 2 mps 667 mmHg 47%
    21:00 +17°C° 0 mm 2 mps 667 mmHg 50%
    22:00 +16°C° 0 mm 3 mps 667 mmHg 53%
    23:00 +14°C° 0 mm 4 mps 667 mmHg 55%

    Tomorrow, 9 April, Thursday

    Time Temperature Precipitation Wind Pressure Humidity
    00:00 +13°C° 0 mm 5 mps 666 mmHg 58%
    01:00 +13°C° 0 mm 5 mps 666 mmHg 58%
    02:00 +12°C° 0 mm 5 mps 666 mmHg 59%
    03:00 +12°C° 0 mm 5 mps 665 mmHg 59%
    04:00 +12°C° 0 mm 5 mps 665 mmHg 60%
    05:00 +12°C° 0 mm 5 mps 666 mmHg 61%
    06:00 +12°C° 0 mm 5 mps 666 mmHg 62%
    07:00 +11°C° 0 mm 6 mps 666 mmHg 60%
    08:00 +12°C° 0 mm 7 mps 667 mmHg 59%
    09:00 +14°C° 0 mm 7 mps 667 mmHg 57%
    10:00 +15°C° 0 mm 7 mps 667 mmHg 56%
    11:00 +15°C° 0 mm 7 mps 667 mmHg 54%
    12:00 +16°C° 0 mm 7 mps 667 mmHg 52%
    13:00 +16°C° 0.1 mm 6 mps 667 mmHg 51%
    14:00 +17°C° 0.1 mm 5 mps 667 mmHg 50%
    15:00 +17°C° 0.1 mm 5 mps 666 mmHg 50%
    16:00 +16°C° 0.1 mm 5 mps 666 mmHg 51%
    17:00 +17°C° 0.1 mm 4 mps 666 mmHg 53%
    18:00 +15°C° 0.1 mm 4 mps 666 mmHg 55%
    19:00 +15°C° 0 mm 4 mps 666 mmHg 57%
    20:00 +14°C° 0 mm 4 mps 666 mmHg 58%
    21:00 +14°C° 0 mm 4 mps 666 mmHg 60%
    22:00 +13°C° 0 mm 3 mps 666 mmHg 61%
    23:00 +13°C° 0 mm 3 mps 666 mmHg 62%

    Day after tomorrow, 10 April, Friday

    Time Temperature Precipitation Wind Pressure Humidity
    00:00 +13°C° 0 mm 3 mps 666 mmHg 63%
    01:00 +12°C° 0.1 mm 4 mps 665 mmHg 67%
    02:00 +12°C° 0.1 mm 4 mps 665 mmHg 71%
    03:00 +10°C° 0.1 mm 5 mps 665 mmHg 75%
    04:00 +11°C° 0.3 mm 4 mps 665 mmHg 79%
    05:00 +11°C° 0.3 mm 4 mps 665 mmHg 84%
    06:00 +11°C° 0.3 mm 3 mps 665 mmHg 88%
    07:00 +11°C° 0.6 mm 3 mps 665 mmHg 88%
    08:00 +11°C° 0.6 mm 4 mps 665 mmHg 89%
    09:00 +11°C° 0.6 mm 4 mps 665 mmHg 90%
    10:00 +11°C° 0.6 mm 4 mps 665 mmHg 86%
    11:00 +10°C° 0.6 mm 5 mps 665 mmHg 83%
    12:00 +10°C° 0.6 mm 6 mps 665 mmHg 79%
    13:00 +11°C° 0.3 mm 6 mps 665 mmHg 78%
    14:00 +11°C° 0.3 mm 6 mps 665 mmHg 76%
    15:00 +13°C° 0.3 mm 6 mps 665 mmHg 75%
    16:00 +11°C° 0.9 mm 6 mps 665 mmHg 77%
    17:00 +11°C° 0.9 mm 6 mps 665 mmHg 80%
    18:00 +10°C° 0.9 mm 6 mps 665 mmHg 83%
    19:00 +10°C° 0.1 mm 6 mps 665 mmHg 86%
    20:00 +10°C° 0.1 mm 5 mps 665 mmHg 90%
    21:00 +11°C° 0.1 mm 4 mps 665 mmHg 93%
    22:00 +10°C° 0 mm 4 mps 665 mmHg 94%
    23:00 +10°C° 0 mm 4 mps 665 mmHg 94%

    11 April, Saturday

    Time Temperature Precipitation Wind Pressure Humidity
    00:00 +10°C° 0 mm 4 mps 665 mmHg 94%
    01:00 +10°C° 0 mm 4 mps 665 mmHg 93%
    02:00 +10°C° 0 mm 4 mps 665 mmHg 92%
    03:00 +9°C° 0 mm 3 mps 665 mmHg 91%
    04:00 +10°C° 0 mm 3 mps 665 mmHg 89%
    05:00 +10°C° 0 mm 3 mps 665 mmHg 88%
    06:00 +10°C° 0 mm 3 mps 665 mmHg 86%
    07:00 +11°C° 0 mm 3 mps 665 mmHg 81%
    08:00 +12°C° 0 mm 2 mps 666 mmHg 75%
    09:00 +13°C° 0 mm 2 mps 666 mmHg 70%
    10:00 +14°C° 0 mm 2 mps 666 mmHg 65%
    11:00 +16°C° 0 mm 2 mps 666 mmHg 60%
    12:00 +17°C° 0 mm 2 mps 666 mmHg 54%
    13:00 +17°C° 0.1 mm 2 mps 666 mmHg 53%
    14:00 +18°C° 0.1 mm 3 mps 666 mmHg 51%
    15:00 +18°C° 0.1 mm 3 mps 665 mmHg 50%
    16:00 +18°C° 0.1 mm 2 mps 665 mmHg 52%
    17:00 +18°C° 0.1 mm 2 mps 665 mmHg 53%
    18:00 +18°C° 0.1 mm 1 mps 665 mmHg 55%
    19:00 +17°C° 0 mm 2 mps 666 mmHg 59%
    20:00 +16°C° 0 mm 2 mps 666 mmHg 63%
    21:00 +14°C° 0 mm 3 mps 666 mmHg 67%
    22:00 +14°C° 0 mm 4 mps 666 mmHg 70%
    23:00 +13°C° 0 mm 5 mps 666 mmHg 73%

    12 April, Sunday

    Time Temperature Precipitation Wind Pressure Humidity
    00:00 +13°C° 0 mm 6 mps 665 mmHg 76%
    01:00 +11°C° 0 mm 6 mps 665 mmHg 74%
    02:00 +11°C° 0 mm 6 mps 665 mmHg 72%
    03:00 +11°C° 0 mm 6 mps 664 mmHg 69%
    04:00 +11°C° 0 mm 6 mps 664 mmHg 68%
    05:00 +10°C° 0 mm 6 mps 664 mmHg 66%
    06:00 +10°C° 0 mm 6 mps 665 mmHg 65%
    07:00 +11°C° 0 mm 7 mps 665 mmHg 62%
    08:00 +12°C° 0 mm 7 mps 665 mmHg 58%
    09:00 +13°C° 0 mm 8 mps 666 mmHg 55%
    10:00 +15°C° 0 mm 8 mps 666 mmHg 53%
    11:00 +16°C° 0 mm 8 mps 665 mmHg 51%
    12:00 +17°C° 0 mm 8 mps 665 mmHg 49%
    13:00 +18°C° 0 mm 8 mps 665 mmHg 46%
    14:00 +18°C° 0 mm 9 mps 664 mmHg 43%
    15:00 +19°C° 0 mm 9 mps 664 mmHg 40%
    16:00 +20°C° 0 mm 8 mps 664 mmHg 41%
    17:00 +18°C° 0 mm 8 mps 663 mmHg 42%
    18:00 +17°C° 0 mm 8 mps 663 mmHg 44%
    19:00 +16°C° 0 mm 8 mps 663 mmHg 46%
    20:00 +15°C° 0 mm 9 mps 663 mmHg 49%
    21:00 +13°C° 0 mm 10 mps 663 mmHg 52%
    22:00 +13°C° 0 mm 10 mps 662 mmHg 53%
    23:00 +13°C° 0 mm 11 mps 662 mmHg 53%

    13 April, Monday

    Time Temperature Precipitation Wind Pressure Humidity
    00:00 +12°C° 0 mm 11 mps 662 mmHg 53%
    01:00 +12°C° 0 mm 11 mps 661 mmHg 54%
    02:00 +12°C° 0 mm 11 mps 661 mmHg 54%
    03:00 +11°C° 0 mm 11 mps 661 mmHg 55%
    04:00 +12°C° 0 mm 11 mps 661 mmHg 54%
    05:00 +12°C° 0 mm 10 mps 661 mmHg 53%
    06:00 +12°C° 0 mm 10 mps 661 mmHg 53%
    07:00 +13°C° 0 mm 11 mps 661 mmHg 49%
    08:00 +14°C° 0 mm 12 mps 661 mmHg 45%
    09:00 +15°C° 0 mm 13 mps 661 mmHg 41%
    10:00 +17°C° 0 mm 14 mps 661 mmHg 40%
    11:00 +18°C° 0 mm 14 mps 660 mmHg 38%
    12:00 +19°C° 0 mm 15 mps 660 mmHg 36%
    13:00 +22°C° 0 mm 13 mps 660 mmHg 32%
    14:00 +23°C° 0 mm 12 mps 660 mmHg 27%
    15:00 +26°C° 0 mm 10 mps 659 mmHg 22%
    16:00 +24°C° 0 mm 10 mps 659 mmHg 24%
    17:00 +23°C° 0 mm 10 mps 658 mmHg 26%
    18:00 +22°C° 0 mm 10 mps 658 mmHg 28%
    19:00 +21°C° 0 mm 10 mps 658 mmHg 32%
    20:00 +18°C° 0 mm 10 mps 658 mmHg 36%
    21:00 +17°C° 0 mm 10 mps 659 mmHg 41%
    22:00 +16°C° 0 mm 8 mps 659 mmHg 45%
    23:00 +16°C° 0 mm 6 mps 659 mmHg 49%
    Show more